SWA014 KLAX-KSAT

Flight info

Callsign SWA014
Flight time N/A
Altitude 35000
Route DOTSS2 CNERY BLH ELP FST J138 SHUCK MOPPP DNKIN1
Aircraft B38M/M-SDE1FGHILORVWXY/HB1

Departure

Time 2026-05-01 13:41
Airport Los Angeles International Airport (KLAX)

Arrival

Time N/A
Airport San Antonio International Airport (KSAT)
Time Latitude Longitude Altitude Speed Heading
2026-05-01 13:01 33.94541 -118.40780 127 ft 0 kts 96°
2026-05-01 13:11 33.94541 -118.40788 127 ft 3 kts 96°
2026-05-01 13:11 33.94543 -118.40810 122 ft 3 kts 96°
2026-05-01 13:12 33.94545 -118.40833 123 ft 3 kts 96°
2026-05-01 13:12 33.94547 -118.40855 123 ft 3 kts 96°
2026-05-01 13:12 33.94548 -118.40878 125 ft 3 kts 57°
2026-05-01 13:12 33.94534 -118.40890 123 ft 3 kts 352°
2026-05-01 13:13 33.94533 -118.40891 124 ft 0 kts 346°
2026-05-01 13:15 33.94539 -118.40892 124 ft 2 kts 348°
2026-05-01 13:16 33.94551 -118.40895 124 ft 0 kts 348°
2026-05-01 13:16 33.94566 -118.40898 124 ft 6 kts 351°
2026-05-01 13:16 33.94628 -118.40907 124 ft 10 kts 353°
2026-05-01 13:17 33.94728 -118.41114 123 ft 13 kts 259°
2026-05-01 13:17 33.94700 -118.41227 123 ft 15 kts 246°
2026-05-01 13:18 33.94499 -118.41255 124 ft 17 kts 172°
2026-05-01 13:18 33.94382 -118.41235 124 ft 17 kts 172°
2026-05-01 13:18 33.94258 -118.41216 124 ft 18 kts 173°
2026-05-01 13:18 33.94130 -118.41196 125 ft 19 kts 172°
2026-05-01 13:19 33.93997 -118.41176 124 ft 20 kts 173°
2026-05-01 13:19 33.93863 -118.41159 124 ft 18 kts 173°
2026-05-01 13:19 33.93771 -118.41062 126 ft 10 kts 84°
2026-05-01 13:20 33.93780 -118.40978 127 ft 11 kts 82°
2026-05-01 13:20 33.93790 -118.40884 127 ft 12 kts 82°
2026-05-01 13:20 33.93802 -118.40783 124 ft 13 kts 82°
2026-05-01 13:21 33.93826 -118.40560 122 ft 14 kts 83°
2026-05-01 13:21 33.93836 -118.40442 125 ft 14 kts 82°
2026-05-01 13:21 33.93845 -118.40324 127 ft 14 kts 83°
2026-05-01 13:21 33.93858 -118.40202 127 ft 15 kts 82°
2026-05-01 13:22 33.93872 -118.40078 125 ft 15 kts 83°
2026-05-01 13:22 33.93885 -118.39950 125 ft 16 kts 82°
2026-05-01 13:22 33.93900 -118.39818 123 ft 16 kts 82°
2026-05-01 13:22 33.93914 -118.39685 125 ft 16 kts 82°
2026-05-01 13:23 33.93929 -118.39549 125 ft 16 kts 82°
2026-05-01 13:23 33.93943 -118.39412 123 ft 17 kts 83°
2026-05-01 13:23 33.93955 -118.39273 124 ft 17 kts 83°
2026-05-01 13:23 33.93969 -118.39133 125 ft 17 kts 83°
2026-05-01 13:24 33.93984 -118.38993 123 ft 17 kts 83°
2026-05-01 13:24 33.93999 -118.38853 122 ft 17 kts 83°
2026-05-01 13:24 33.94013 -118.38710 122 ft 17 kts 83°
2026-05-01 13:25 33.94042 -118.38427 122 ft 11 kts 83°
2026-05-01 13:25 33.94039 -118.38365 123 ft 5 kts 120°
2026-05-01 13:25 33.94036 -118.38361 123 ft 0 kts 130°
2026-05-01 13:26 33.94035 -118.38361 123 ft 0 kts 130°
2026-05-01 13:29 33.94046 -118.38319 125 ft 13 kts 72°
2026-05-01 13:30 33.94078 -118.38089 126 ft 0 kts 83°
2026-05-01 13:34 33.94078 -118.38087 126 ft 1 kts 83°
2026-05-01 13:34 33.94070 -118.38035 126 ft 0 kts 152°
2026-05-01 13:39 33.94069 -118.38034 123 ft 1 kts 152°
2026-05-01 13:39 33.94021 -118.38027 124 ft 15 kts 199°
2026-05-01 13:39 33.93973 -118.38172 127 ft 21 kts 260°
2026-05-01 13:39 33.93956 -118.38320 126 ft 15 kts 263°
2026-05-01 13:40 33.93941 -118.38452 123 ft 11 kts 262°
2026-05-01 13:40 33.93940 -118.38466 124 ft 2 kts 262°
2026-05-01 13:40 33.93927 -118.38580 125 ft 33 kts 263°
2026-05-01 13:40 33.93869 -118.39154 127 ft 111 kts 263°
2026-05-01 13:41 33.93748 -118.40389 124 ft 181 kts 263°
2026-05-01 13:41 33.93587 -118.42020 653 ft 197 kts 263°
2026-05-01 13:41 33.93417 -118.43578 1926 ft 179 kts 258°
2026-05-01 13:41 33.93007 -118.44952 2599 ft 183 kts 242°
2026-05-01 13:42 33.92225 -118.46255 2936 ft 196 kts 227°
2026-05-01 13:42 33.91165 -118.47232 3603 ft 194 kts 208°
2026-05-01 13:42 33.89817 -118.47692 3930 ft 212 kts 186°
2026-05-01 13:42 33.88346 -118.47443 4435 ft 216 kts 158°
2026-05-01 13:43 33.87139 -118.46321 4853 ft 230 kts 127°
2026-05-01 13:43 33.86537 -118.44524 5207 ft 240 kts 95°
2026-05-01 13:43 33.86763 -118.42571 5833 ft 235 kts 70°
2026-05-01 13:43 33.87244 -118.40671 6363 ft 237 kts 73°
2026-05-01 13:44 33.87624 -118.38801 7156 ft 227 kts 76°
2026-05-01 13:44 33.87976 -118.36882 7412 ft 243 kts 77°
2026-05-01 13:44 33.88313 -118.34914 8094 ft 234 kts 78°
2026-05-01 13:44 33.88623 -118.33000 8700 ft 234 kts 79°
2026-05-01 13:45 33.88923 -118.31044 9144 ft 240 kts 79°
2026-05-01 13:45 33.89208 -118.29089 9693 ft 233 kts 80°
2026-05-01 13:45 33.89473 -118.27259 10071 ft 208 kts 80°
2026-05-01 13:45 33.89725 -118.25530 10359 ft 213 kts 79°
2026-05-01 13:46 33.89986 -118.23741 10665 ft 220 kts 79°
2026-05-01 13:46 33.90249 -118.21909 10975 ft 224 kts 79°
2026-05-01 13:46 33.90491 -118.20042 11277 ft 228 kts 83°
2026-05-01 13:46 33.90506 -118.18114 11565 ft 233 kts 92°
2026-05-01 13:47 33.90330 -118.16163 11913 ft 234 kts 96°
2026-05-01 13:47 33.90073 -118.14227 12296 ft 234 kts 97°
2026-05-01 13:47 33.89801 -118.12294 12665 ft 234 kts 97°
2026-05-01 13:47 33.89521 -118.10386 13017 ft 235 kts 97°
2026-05-01 13:48 33.89227 -118.08449 13372 ft 236 kts 97°
2026-05-01 13:48 33.88923 -118.06504 13723 ft 237 kts 97°
2026-05-01 13:48 33.88614 -118.04549 14029 ft 238 kts 97°
2026-05-01 13:48 33.88303 -118.02583 14322 ft 239 kts 97°
2026-05-01 13:49 33.87972 -118.00619 14610 ft 241 kts 103°
2026-05-01 13:49 33.87353 -117.98721 14885 ft 245 kts 111°
2026-05-01 13:49 33.86618 -117.96872 15175 ft 246 kts 113°
2026-05-01 13:49 33.85853 -117.95012 15450 ft 255 kts 113°
2026-05-01 13:50 33.85041 -117.93039 15733 ft 271 kts 113°
2026-05-01 13:50 33.84184 -117.90944 16052 ft 287 kts 113°
2026-05-01 13:50 33.83285 -117.88738 16392 ft 301 kts 113°
2026-05-01 13:50 33.82504 -117.86341 16758 ft 312 kts 100°
2026-05-01 13:51 33.82110 -117.83768 17123 ft 323 kts 94°
2026-05-01 13:51 33.81828 -117.81033 17500 ft 336 kts 93°
2026-05-01 13:51 33.81574 -117.78187 17890 ft 348 kts 92°
2026-05-01 13:51 33.81323 -117.75228 18270 ft 361 kts 92°
2026-05-01 13:52 33.81069 -117.72170 18600 ft 374 kts 92°
2026-05-01 13:52 33.80812 -117.69013 18928 ft 386 kts 92°
2026-05-01 13:52 33.80553 -117.65752 19266 ft 397 kts 92°
2026-05-01 13:52 33.80291 -117.62382 19599 ft 409 kts 92°
2026-05-01 13:53 33.80029 -117.58928 19921 ft 420 kts 92°
2026-05-01 13:53 33.79505 -117.51842 20577 ft 429 kts 92°
2026-05-01 13:53 33.79247 -117.48300 20901 ft 431 kts 92°
2026-05-01 13:54 33.78985 -117.44694 21228 ft 435 kts 92°
2026-05-01 13:54 33.78722 -117.41051 21551 ft 438 kts 92°
2026-05-01 13:54 33.78459 -117.37387 21870 ft 441 kts 92°
2026-05-01 13:54 33.78197 -117.33702 22210 ft 443 kts 92°
2026-05-01 13:55 33.77936 -117.29988 22545 ft 446 kts 92°
2026-05-01 13:55 33.77679 -117.26302 22882 ft 449 kts 92°
2026-05-01 13:55 33.77420 -117.22542 23222 ft 452 kts 92°
2026-05-01 13:55 33.77161 -117.18761 23573 ft 455 kts 92°
2026-05-01 13:56 33.76902 -117.14950 23871 ft 458 kts 92°
2026-05-01 13:56 33.76642 -117.11124 24147 ft 461 kts 92°
2026-05-01 13:56 33.76379 -117.07277 24443 ft 463 kts 92°
2026-05-01 13:56 33.76113 -117.03410 24745 ft 466 kts 92°
2026-05-01 13:57 33.75843 -116.99513 25045 ft 469 kts 92°
2026-05-01 13:57 33.75570 -116.95592 25335 ft 471 kts 92°
2026-05-01 13:57 33.75297 -116.91699 25636 ft 474 kts 92°
2026-05-01 13:57 33.75018 -116.87741 26020 ft 477 kts 92°
2026-05-01 13:58 33.74735 -116.83750 26346 ft 481 kts 92°
2026-05-01 13:58 33.74444 -116.79725 26645 ft 484 kts 92°
2026-05-01 13:58 33.74150 -116.75689 26967 ft 487 kts 92°
2026-05-01 13:58 33.73850 -116.71621 27269 ft 491 kts 92°
2026-05-01 13:59 33.73546 -116.67527 27578 ft 493 kts 92°
2026-05-01 13:59 33.73241 -116.63417 27907 ft 496 kts 92°
2026-05-01 13:59 33.72932 -116.59277 28189 ft 499 kts 92°
2026-05-01 13:59 33.72623 -116.55107 28550 ft 501 kts 92°
2026-05-01 14:00 33.72407 -116.50927 28900 ft 503 kts 88°
2026-05-01 14:00 33.72366 -116.46708 29236 ft 506 kts 86°
2026-05-01 14:00 33.72280 -116.42520 29587 ft 511 kts 90°
2026-05-01 14:00 33.71882 -116.38258 29942 ft 515 kts 96°
2026-05-01 14:01 33.71240 -116.34011 30246 ft 519 kts 99°
2026-05-01 14:01 33.70535 -116.29750 30556 ft 521 kts 97°
2026-05-01 14:01 33.70006 -116.25430 30879 ft 522 kts 94°
2026-05-01 14:01 33.69600 -116.21077 31197 ft 525 kts 94°
2026-05-01 14:02 33.69105 -116.16773 31512 ft 527 kts 96°
2026-05-01 14:02 33.68502 -116.12416 31834 ft 530 kts 97°
2026-05-01 14:02 33.67933 -116.08040 32157 ft 531 kts 96°
2026-05-01 14:02 33.67433 -116.03642 32488 ft 533 kts 95°
2026-05-01 14:03 33.66919 -115.99224 32815 ft 535 kts 96°
2026-05-01 14:03 33.66354 -115.94805 33169 ft 537 kts 97°
2026-05-01 14:03 33.65780 -115.90360 33385 ft 541 kts 96°
2026-05-01 14:03 33.65230 -115.85860 33385 ft 549 kts 96°
2026-05-01 14:04 33.64099 -115.76665 33389 ft 560 kts 97°
2026-05-01 14:04 33.63120 -115.68993 33381 ft 560 kts 96°
2026-05-01 14:05 33.61811 -115.58176 33380 ft 560 kts 92°
2026-05-01 14:05 33.61543 -115.48912 33385 ft 558 kts 88°
2026-05-01 14:06 33.61337 -115.39588 33385 ft 558 kts 89°
2026-05-01 14:06 33.61088 -115.30276 33377 ft 558 kts 89°
2026-05-01 14:07 33.60863 -115.20966 33376 ft 559 kts 89°
2026-05-01 14:08 33.60484 -115.06978 33382 ft 559 kts 89°
2026-05-01 14:08 33.60230 -114.97721 33384 ft 559 kts 89°
2026-05-01 14:09 33.59964 -114.88394 33387 ft 559 kts 89°
2026-05-01 14:09 33.59695 -114.79061 33406 ft 559 kts 89°
2026-05-01 14:10 33.58537 -114.69811 33402 ft 563 kts 100°
2026-05-01 14:10 33.56909 -114.60612 33395 ft 563 kts 100°
2026-05-01 14:11 33.55331 -114.51421 33403 ft 563 kts 100°
2026-05-01 14:11 33.52904 -114.37628 33389 ft 564 kts 100°
2026-05-01 14:12 33.51298 -114.28475 33382 ft 564 kts 100°
2026-05-01 14:12 33.49665 -114.19273 33372 ft 564 kts 100°
2026-05-01 14:13 33.48309 -114.11621 33379 ft 564 kts 100°
2026-05-01 14:13 33.46387 -114.00862 33388 ft 565 kts 100°
2026-05-01 14:14 33.44738 -113.91661 33392 ft 565 kts 100°
2026-05-01 14:14 33.43092 -113.82524 33414 ft 565 kts 100°
2026-05-01 14:15 33.41418 -113.73274 33431 ft 565 kts 100°
2026-05-01 14:15 33.39758 -113.64141 33416 ft 564 kts 100°
2026-05-01 14:16 33.38083 -113.54964 33410 ft 565 kts 100°
2026-05-01 14:16 33.36395 -113.45761 33408 ft 565 kts 101°
2026-05-01 14:17 33.34706 -113.36587 33383 ft 565 kts 101°
2026-05-01 14:17 33.33008 -113.27408 33383 ft 565 kts 101°
2026-05-01 14:18 33.31302 -113.18227 33383 ft 565 kts 101°
2026-05-01 14:18 33.29877 -113.10589 33399 ft 565 kts 101°
2026-05-01 14:19 33.27869 -112.99866 33390 ft 565 kts 101°
2026-05-01 14:19 33.26143 -112.90695 33406 ft 565 kts 101°
2026-05-01 14:20 33.23553 -112.77011 33437 ft 566 kts 101°
2026-05-01 14:21 33.21809 -112.67842 33424 ft 565 kts 101°
2026-05-01 14:21 33.20060 -112.58684 33416 ft 565 kts 101°
2026-05-01 14:22 33.17720 -112.46499 33403 ft 565 kts 101°
2026-05-01 14:22 33.15956 -112.37356 33365 ft 565 kts 101°
2026-05-01 14:23 33.14187 -112.28225 33387 ft 564 kts 102°
2026-05-01 14:23 33.12410 -112.19087 33375 ft 564 kts 102°
2026-05-01 14:24 33.10642 -112.10036 33403 ft 564 kts 102°
2026-05-01 14:24 33.08854 -112.00920 33417 ft 564 kts 102°
2026-05-01 14:25 33.07059 -111.91810 33423 ft 564 kts 102°
2026-05-01 14:25 33.05258 -111.82703 33427 ft 564 kts 102°
2026-05-01 14:26 33.02545 -111.69052 33462 ft 564 kts 102°
2026-05-01 14:27 33.00726 -111.59946 33444 ft 564 kts 102°
2026-05-01 14:27 32.98901 -111.50854 33382 ft 564 kts 102°
2026-05-01 14:28 32.96164 -111.37272 33397 ft 564 kts 102°
2026-05-01 14:28 32.94325 -111.28195 33394 ft 564 kts 102°
2026-05-01 14:29 32.92477 -111.19110 33410 ft 564 kts 102°
2026-05-01 14:30 32.88769 -111.00993 33426 ft 564 kts 102°
2026-05-01 14:31 32.85967 -110.87390 33421 ft 564 kts 102°
2026-05-01 14:31 32.84088 -110.78317 33436 ft 564 kts 103°
2026-05-01 14:32 32.82203 -110.69248 33435 ft 565 kts 103°
2026-05-01 14:32 32.80327 -110.60257 33427 ft 564 kts 103°
2026-05-01 14:33 32.78429 -110.51195 33443 ft 565 kts 103°
2026-05-01 14:33 32.76524 -110.42136 33434 ft 565 kts 103°
2026-05-01 14:34 32.74612 -110.33079 33407 ft 565 kts 103°
2026-05-01 14:34 32.72695 -110.24035 33426 ft 565 kts 103°
2026-05-01 14:35 32.70771 -110.14986 33416 ft 565 kts 103°
2026-05-01 14:35 32.68840 -110.05944 33411 ft 565 kts 103°
2026-05-01 14:36 32.66900 -109.96891 33427 ft 565 kts 103°
2026-05-01 14:36 32.64953 -109.87845 33401 ft 565 kts 103°
2026-05-01 14:37 32.63003 -109.78812 33392 ft 564 kts 103°
2026-05-01 14:37 32.61047 -109.69790 33379 ft 565 kts 103°
2026-05-01 14:38 32.59097 -109.60824 33413 ft 565 kts 103°
2026-05-01 14:38 32.57125 -109.51797 33394 ft 565 kts 103°
2026-05-01 14:39 32.55148 -109.42776 33383 ft 565 kts 104°
2026-05-01 14:39 32.53165 -109.33764 33373 ft 565 kts 104°
2026-05-01 14:40 32.51176 -109.24754 33380 ft 565 kts 104°
2026-05-01 14:40 32.49178 -109.15740 33378 ft 565 kts 104°
2026-05-01 14:41 32.47191 -109.06806 33342 ft 563 kts 104°
2026-05-01 14:41 32.45187 -108.97828 33377 ft 563 kts 104°
2026-05-01 14:42 32.43178 -108.88863 33382 ft 563 kts 104°
2026-05-01 14:42 32.41179 -108.79973 33382 ft 563 kts 104°
2026-05-01 14:43 32.39159 -108.71018 33395 ft 562 kts 104°
2026-05-01 14:43 32.37134 -108.62079 33398 ft 562 kts 104°
2026-05-01 14:44 32.35104 -108.53144 33392 ft 562 kts 104°
2026-05-01 14:44 32.32045 -108.39745 33454 ft 562 kts 105°
2026-05-01 14:45 32.28986 -108.26415 33376 ft 561 kts 105°
2026-05-01 14:46 32.26930 -108.17496 33377 ft 562 kts 105°
2026-05-01 14:46 32.23836 -108.04131 33374 ft 562 kts 105°
2026-05-01 14:47 32.21766 -107.95229 33375 ft 562 kts 105°
2026-05-01 14:48 32.18665 -107.81951 33379 ft 562 kts 105°
2026-05-01 14:48 32.17622 -107.77499 33515 ft 562 kts 105°
2026-05-01 14:48 32.15530 -107.68595 33520 ft 562 kts 105°
2026-05-01 14:49 32.11337 -107.50834 33460 ft 562 kts 105°
2026-05-01 14:50 32.07129 -107.33138 33399 ft 560 kts 105°
2026-05-01 14:51 32.03953 -107.19856 33404 ft 560 kts 106°
2026-05-01 14:52 32.00766 -107.06596 33425 ft 560 kts 106°
2026-05-01 14:53 31.97588 -106.93441 33412 ft 559 kts 106°
2026-05-01 14:53 31.95451 -106.84633 33496 ft 559 kts 106°
2026-05-01 14:54 31.93309 -106.75830 33524 ft 559 kts 106°
2026-05-01 14:54 31.91160 -106.67031 33532 ft 556 kts 106°
2026-05-01 14:55 31.89031 -106.58340 33527 ft 555 kts 106°
2026-05-01 14:55 31.86884 -106.49602 33513 ft 556 kts 106°
2026-05-01 14:56 31.84730 -106.40868 33513 ft 556 kts 107°
2026-05-01 14:56 31.82572 -106.32144 33505 ft 554 kts 107°
2026-05-01 14:57 31.80404 -106.23389 33489 ft 558 kts 107°
2026-05-01 14:57 31.77173 -106.10287 33449 ft 558 kts 107°
2026-05-01 14:58 31.74994 -106.01516 33426 ft 558 kts 107°
2026-05-01 14:58 31.72820 -105.92773 33419 ft 556 kts 107°
2026-05-01 14:59 31.70640 -105.84051 33419 ft 556 kts 107°
2026-05-01 14:59 31.68459 -105.75338 33421 ft 556 kts 107°
2026-05-01 15:00 31.65170 -105.62266 33429 ft 555 kts 108°
2026-05-01 15:01 31.62984 -105.53610 33417 ft 557 kts 108°
2026-05-01 15:01 31.60772 -105.44875 33422 ft 558 kts 108°
2026-05-01 15:02 31.58552 -105.36140 33421 ft 558 kts 108°
2026-05-01 15:02 31.56330 -105.27423 33433 ft 556 kts 108°
2026-05-01 15:03 31.54113 -105.18749 33430 ft 555 kts 108°
2026-05-01 15:03 31.51890 -105.10088 33431 ft 555 kts 108°
2026-05-01 15:04 31.49678 -105.01488 33432 ft 555 kts 108°
2026-05-01 15:04 31.47440 -104.92817 33441 ft 555 kts 108°
2026-05-01 15:05 31.45200 -104.84164 33440 ft 557 kts 109°
2026-05-01 15:05 31.42941 -104.75468 33445 ft 558 kts 109°
2026-05-01 15:06 31.40677 -104.66774 33449 ft 558 kts 109°
2026-05-01 15:06 31.38423 -104.58150 33432 ft 558 kts 109°
2026-05-01 15:07 31.36148 -104.49467 33432 ft 558 kts 109°
2026-05-01 15:07 31.33865 -104.40783 33448 ft 558 kts 109°
2026-05-01 15:08 31.31577 -104.32106 33446 ft 558 kts 109°
2026-05-01 15:08 31.29281 -104.23425 33444 ft 558 kts 110°
2026-05-01 15:09 31.27370 -104.16216 33453 ft 560 kts 111°
2026-05-01 15:09 31.25050 -104.07498 33450 ft 562 kts 111°
2026-05-01 15:10 31.22346 -103.97360 33453 ft 562 kts 111°
2026-05-01 15:10 31.19235 -103.85743 33463 ft 559 kts 111°
2026-05-01 15:11 31.15721 -103.72684 33476 ft 562 kts 112°
2026-05-01 15:12 31.13385 -103.64029 33487 ft 562 kts 112°
2026-05-01 15:12 31.09846 -103.50972 33476 ft 562 kts 112°
2026-05-01 15:14 31.03872 -103.29051 33451 ft 568 kts 112°
2026-05-01 15:14 31.00259 -103.15879 33451 ft 568 kts 112°
2026-05-01 15:15 30.95428 -102.98358 33454 ft 567 kts 113°
2026-05-01 15:16 30.90874 -102.80785 33549 ft 568 kts 111°
2026-05-01 15:18 30.85184 -102.58770 33475 ft 568 kts 112°
2026-05-01 15:19 30.80585 -102.41149 33455 ft 568 kts 112°
2026-05-01 15:19 30.77139 -102.28011 33459 ft 569 kts 112°
2026-05-01 15:20 30.73657 -102.14788 33467 ft 571 kts 112°
2026-05-01 15:21 30.71325 -102.05981 33459 ft 568 kts 112°
2026-05-01 15:21 30.68991 -101.97186 33466 ft 571 kts 113°
2026-05-01 15:22 30.65458 -101.83915 33454 ft 574 kts 112°
2026-05-01 15:22 30.63088 -101.75060 33457 ft 573 kts 113°
2026-05-01 15:23 30.60733 -101.66273 33447 ft 574 kts 113°
2026-05-01 15:23 30.58354 -101.57434 33455 ft 574 kts 113°
2026-05-01 15:24 30.57162 -101.53010 33224 ft 576 kts 113°
2026-05-01 15:24 30.55970 -101.48591 32727 ft 571 kts 113°
2026-05-01 15:24 30.54791 -101.44219 32230 ft 562 kts 113°
2026-05-01 15:24 30.53634 -101.39939 31757 ft 552 kts 113°
2026-05-01 15:25 30.52485 -101.35715 31160 ft 545 kts 113°
2026-05-01 15:25 30.51349 -101.31543 30561 ft 539 kts 113°
2026-05-01 15:25 30.50272 -101.27394 29937 ft 534 kts 111°
2026-05-01 15:25 30.49252 -101.23286 29310 ft 526 kts 112°
2026-05-01 15:26 30.48204 -101.19247 28639 ft 519 kts 113°
2026-05-01 15:26 30.47179 -101.15264 27952 ft 513 kts 112°
2026-05-01 15:26 30.46192 -101.11314 27309 ft 507 kts 112°
2026-05-01 15:26 30.45228 -101.07461 26691 ft 501 kts 112°
2026-05-01 15:27 30.44244 -101.03609 26070 ft 495 kts 112°
2026-05-01 15:27 30.43268 -100.99807 25479 ft 489 kts 112°
2026-05-01 15:27 30.42310 -100.96044 24904 ft 484 kts 112°
2026-05-01 15:28 30.40428 -100.88645 23803 ft 473 kts 112°
2026-05-01 15:28 30.39497 -100.85019 23195 ft 467 kts 112°
2026-05-01 15:28 30.38576 -100.81427 22547 ft 462 kts 111°
2026-05-01 15:29 30.36765 -100.74354 21296 ft 452 kts 111°
2026-05-01 15:29 30.35872 -100.70885 20679 ft 448 kts 111°
2026-05-01 15:29 30.34113 -100.64054 19473 ft 439 kts 111°
2026-05-01 15:30 30.32385 -100.57355 18323 ft 430 kts 111°
2026-05-01 15:31 30.29019 -100.44357 15764 ft 413 kts 111°
2026-05-01 15:31 30.27392 -100.38097 14637 ft 404 kts 111°
2026-05-01 15:32 30.25812 -100.32024 14460 ft 392 kts 111°
2026-05-01 15:32 30.24239 -100.26005 14466 ft 390 kts 111°
2026-05-01 15:33 30.21883 -100.16997 14461 ft 390 kts 111°
2026-05-01 15:34 30.19519 -100.07985 14450 ft 390 kts 111°